Content
SEND FEEDBACK

Daily
Averages
Monthly
Summary
United States of America

CHAUTAUQUA, NEW YORK


Home > North America > United States > New York
Elevation: 1264 feet     Latitude: 42 17N     Longitude: 079 37W

WEATHER
 
SELECT A DAY
Number of Records: 203,218;   Date Range: 12/11/96 - 9/22/14
 
SHARE

PRINT THIS DATA

[ ← Previous Day ]
WEATHER ALMANAC - JANUARY 10, 2013
[ Next Day → ]
[ °C ]   °F
Weather ElementAverageHighLow
Temperature35.6 °F39 °F (11:53 am)32 °F (8:53 am)
Dewpoint27 °F30 °F (9:53 am)26.1 °F (11:53 am)
Humidity71.4 %85 % (8:53 am)60 % (11:53 am)
Barometer30.52 in30.63 in (9:53 am)30.35 in (11:53 pm)
Wind Speed4.8 mph10.4 mph (10:53 pm)
Weather ElementAverage
Visibility10 mi
Wind DirectionSSE (159.1 °)

Weather ElementTotal
Precipitation---
Heating Degree Days29.5 (Base 65)
Averaged from 22 records on January 10, 2013
WEATHER CONDITIONS BREAKOUT
WIND DIRECTION BREAKOUT
WEATHER BY HOUR - JANUARY 10, 2013
[ °C ]   °F
Local TimeTemperatureDewpointHumidityBarometerVisibilityWind DirectionWind SpeedGust SpeedPrecipitationEventsConditions
1:53 AM37.0 °F27.0 °F67 %30.46 in10.0 miWest (260°)6.9 mphPartly Cloudy
2:53 AM37.9 °F27.0 °F65 %30.49 in10.0 miWest (260°)5.8 mphMostly Cloudy
3:53 AM37.0 °F27.0 °F67 %30.50 in10.0 miWest (260°)5.8 mphOvercast
4:53 AM37.0 °F27.0 °F67 %30.51 in10.0 miWest (270°)6.9 mphMostly Cloudy
5:53 AM37.0 °F28.0 °F70 %30.52 in10.0 miWest (280°)4.6 mphOvercast
6:53 AM36.0 °F28.9 °F76 %30.55 in10.0 miWNW (300°)3.5 mphClear
7:53 AM35.1 °F28.9 °F78 %30.60 in10.0 miWNW (290°)4.6 mphClear
8:53 AM32.0 °F28.0 °F85 %30.62 in10.0 miCalmClear
9:53 AM36.0 °F30.0 °F79 %30.63 in10.0 miCalmClear
10:53 AM37.0 °F28.0 °F70 %30.62 in10.0 miCalmClear
11:53 AM39.0 °F26.1 °F60 %30.59 in10.0 miNorth (350°)4.6 mphClear
12:53 PM39.0 °F26.1 °F60 %30.57 in10.0 miNNW (340°)4.6 mphClear
1:53 PM37.9 °F26.1 °F62 %30.56 in10.0 miNNW (330°)6.9 mphClear
3:53 PM37.0 °F27.0 °F67 %30.54 in10.0 miNNE (20°)5.8 mphClear
4:53 PM35.1 °F26.1 °F70 %30.53 in10.0 miNE (50°)5.8 mphClear
5:53 PM33.1 °F26.1 °F75 %30.51 in10.0 miEast (80°)4.6 mphClear
6:53 PM33.1 °F26.1 °F75 %30.51 in10.0 miEast (90°)6.9 mphClear
7:53 PM33.1 °F26.1 °F75 %30.50 in10.0 miEast (90°)6.9 mphClear
8:53 PM33.1 °F26.1 °F75 %30.48 in10.0 miENE (70°)4.6 mphClear
9:53 PM32.0 °F26.1 °F79 %30.44 in10.0 miNE (50°)3.5 mphClear
10:53 PM34.0 °F26.1 °F73 %30.38 in10.0 miENE (60°)10.4 mphClear
11:53 PM34.0 °F27.0 °F75 %30.35 in10.0 miNE (50°)3.5 mphClear
Hourly data recorded from KDKK, located miles away from Chautauqua, New York







STORIES FROM OUR PARTNERS